Location: Milton Keynes
(52.0316°N, 0.7531°W)
Time: 20:04:29
(UTC+01:00)

N. Korean satellite - Visible Passes

Search period start: 25 September 2020 00:00
Search period end: 05 October 2020 00:00
Orbit: 455 x 503 km, 97.2° (Epoch: 25 September)

Date Brightness Start Highest point End Pass type
(mag) Time Alt. Az. Time Alt. Az. Time Alt. Az.
25 Sep 8.3 06:19:08 10° NNE 06:22:37 39° E 06:26:02 10° SSE visible
26 Sep 9.6 05:53:33 10° NE 05:56:26 21° E 05:59:16 10° SE visible
27 Sep 10.1 05:28:44 10° ENE 05:30:09 12° E 05:31:32 10° ESE visible
29 Sep 8.8 06:08:33 10° NNE 06:11:48 30° E 06:15:00 10° SSE visible
30 Sep 9.8 05:43:09 10° NE 05:45:34 17° E 05:47:56 10° SE visible
02 Oct 8.0 06:23:37 10° NNE 06:27:07 44° E 06:30:31 10° S visible
03 Oct 9.3 05:57:58 10° NE 06:00:56 23° E 06:03:49 10° SSE visible
04 Oct 10.0 05:32:55 10° ENE 05:34:38 13° E 05:36:19 10° ESE visible
